Paris, IL

8:28 AM CDT on August 22, 2017 (GMT -0500)
Edgar County

Weather History for KPRG - September, 2014

Change the Weather History Date:

Sunday, September 21, 2014

  Actual Average (KHUF) Record (KHUF)
Temperature  
Mean Temperature 64 °F -  
Max Temperature 74 °F 77 °F 94 °F (2010)
Min Temperature 54 °F 54 °F 32 °F (1991)
Degree Days  
Heating Degree Days 2    
Growing Degree Days 14 (Base 50)    
Moisture  
Dew Point 57 °F    
Average Humidity 75    
Maximum Humidity 99    
Minimum Humidity 40    
Precipitation  
Precipitation 0.01 in - - ()
Sea Level Pressure  
Sea Level Pressure 29.97 in    
Wind  
Wind Speed 9 mph (WNW)    
Max Wind Speed 22 mph    
Max Gust Speed 29 mph    
Visibility 10 miles    
Events Rain , Thunderstorm    
Averages and records for this station are not official NWS values.
T = Trace of Precipitation, MM = Missing Value Source: NWS Daily Summary

Daily Weather History Graph

Daily Weather History Graph

Search for Another Location

Airport or City:

Trip Planner

Search our weather history database for the weather conditions in past years. The results will help you decide how hot, cold, wet, or windy it might be!

Date:

Astronomy

Sep. 21, 2014 Rise Set
Actual Time 6:37 AM CDT 6:49 PM CDT
Civil Twilight 6:10 AM CDT 7:16 PM CDT
Nautical Twilight 5:38 AM CDT 7:47 PM CDT
Astronomical Twilight 5:06 AM CDT 8:19 PM CDT
Moon 4:11 AM CDT (9/21) 5:25 PM CDT (9/21)
Length of Visible Light 13h 05m
Length of Day
12h 12m
Waning Crescent, 6% of the Moon is Illuminated
Sep 21
Waning Crescent
Sep 24
New
Oct 1
First Quarter
Oct 8
Full
Oct 15
Last Quarter

Hourly Weather History & Observations

Time (CDT) Temp. Dew Point Humidity Pressure Visibility Wind Dir Wind Speed Gust Speed Precip Events Conditions
12:15 AM 71.8 °F 68.9 °F 91% 29.86 in 10.0 mi SW 11.5 mph 17.3 mph N/A Thunderstorm Mostly Cloudy
12:35 AM 71.6 °F 69.1 °F 92% 29.86 in 10.0 mi WSW 9.2 mph - N/A Rain Light Rain
12:55 AM 71.1 °F 69.1 °F 93% 29.85 in 10.0 mi WSW 6.9 mph - 0.01 in   Overcast
1:15 AM 71.4 °F 68.9 °F 92% 29.85 in 10.0 mi WSW 5.8 mph - N/A Thunderstorm Thunderstorm
1:35 AM 70.7 °F 68.5 °F 93% 29.85 in 10.0 mi SW 6.9 mph - N/A   Scattered Clouds
1:55 AM 70.2 °F 68.5 °F 95% 29.85 in 10.0 mi WSW 9.2 mph - N/A   Scattered Clouds
2:15 AM 70.0 °F 68.4 °F 95% 29.84 in 10.0 mi WSW 5.8 mph - N/A   Scattered Clouds
2:35 AM 69.4 °F 68.0 °F 95% 29.84 in 10.0 mi WSW 6.9 mph - N/A Thunderstorm Scattered Clouds
2:55 AM 69.1 °F 68.0 °F 96% 29.84 in 7.0 mi SW 6.9 mph - N/A Thunderstorm Thunderstorm
3:15 AM 68.9 °F 68.0 °F 97% 29.84 in 7.0 mi WSW 6.9 mph - N/A Thunderstorm Clear
3:35 AM 68.9 °F 68.0 °F 97% 29.85 in 7.0 mi WSW 8.1 mph - N/A   Scattered Clouds
3:55 AM 68.4 °F 67.6 °F 98% 29.85 in 7.0 mi WSW 5.8 mph - N/A   Scattered Clouds
4:15 AM 68.4 °F 67.6 °F 98% 29.84 in 5.0 mi WSW 6.9 mph - N/A   Clear
4:35 AM 68.2 °F 67.6 °F 98% 29.85 in 5.0 mi WSW 6.9 mph - N/A   Clear
4:55 AM 68.0 °F 67.5 °F 98% 29.86 in 5.0 mi West 8.1 mph - N/A   Clear
5:15 AM 67.5 °F 67.1 °F 99% 29.86 in 4.0 mi West 8.1 mph - N/A   Clear
5:35 AM 67.6 °F 67.3 °F 99% 29.87 in 5.0 mi WNW 8.1 mph - N/A   Mostly Cloudy
5:55 AM 66.4 °F 64.8 °F 95% 29.88 in 10.0 mi WNW 11.5 mph 18.4 mph N/A   Scattered Clouds
6:15 AM 64.4 °F 61.5 °F 90% 29.90 in 10.0 mi NW 15.0 mph 21.9 mph N/A   Scattered Clouds
6:35 AM 61.9 °F 59.4 °F 91% 29.91 in 10.0 mi NW 10.4 mph 16.1 mph N/A   Clear
6:55 AM 60.6 °F 58.1 °F 91% 29.92 in 10.0 mi NW 8.1 mph - N/A   Clear
7:15 AM 59.9 °F 58.1 °F 94% 29.93 in 10.0 mi WNW 6.9 mph - N/A   Clear
7:35 AM 59.9 °F 57.7 °F 93% 29.94 in 10.0 mi WNW 5.8 mph - N/A   Clear
7:55 AM 60.8 °F 57.4 °F 88% 29.94 in 10.0 mi WNW 8.1 mph - N/A   Clear
8:15 AM 61.5 °F 57.4 °F 86% 29.94 in 10.0 mi WNW 6.9 mph - N/A   Clear
8:35 AM 62.8 °F 57.2 °F 82% 29.94 in 10.0 mi West 5.8 mph - N/A   Clear
8:55 AM 63.9 °F 56.3 °F 76% 29.94 in 10.0 mi West 8.1 mph - N/A   Clear
9:15 AM 64.9 °F 56.5 °F 74% 29.95 in 10.0 mi West 6.9 mph - N/A   Clear
9:35 AM 66.4 °F 55.4 °F 68% 29.95 in 10.0 mi West 8.1 mph - N/A   Clear
9:55 AM 67.6 °F 54.9 °F 64% 29.95 in 10.0 mi WNW 11.5 mph 18.4 mph N/A   Clear
10:15 AM 68.9 °F 55.0 °F 61% 29.95 in 10.0 mi WNW 12.7 mph 18.4 mph N/A   Clear
10:35 AM 69.3 °F 54.3 °F 59% 29.96 in 10.0 mi West 10.4 mph 23.0 mph N/A   Clear
10:55 AM 70.3 °F 53.2 °F 55% 29.96 in 10.0 mi WNW 17.3 mph 23.0 mph N/A   Clear
11:15 AM 71.2 °F 53.1 °F 53% 29.96 in 10.0 mi West 15.0 mph 21.9 mph N/A   Clear
11:35 AM 71.6 °F 52.7 °F 51% 29.96 in 10.0 mi West 17.3 mph 24.2 mph N/A   Clear
11:55 AM 72.5 °F 52.3 °F 49% 29.95 in 10.0 mi West 21.9 mph 28.8 mph N/A   Scattered Clouds
12:15 PM 73.2 °F 52.5 °F 48% 29.95 in 10.0 mi West 13.8 mph 26.5 mph N/A   Scattered Clouds
12:35 PM 72.1 °F 49.8 °F 45% 29.94 in 10.0 mi WNW 17.3 mph 25.3 mph N/A   Scattered Clouds
12:55 PM 73.9 °F 48.6 °F 41% 29.94 in 10.0 mi WNW 18.4 mph 26.5 mph N/A   Scattered Clouds
1:15 PM 73.8 °F 47.8 °F 40% 29.94 in 10.0 mi NW 15.0 mph 27.6 mph N/A   Scattered Clouds
1:35 PM 73.9 °F 48.9 °F 41% 29.95 in 10.0 mi WNW 15.0 mph 25.3 mph N/A   Scattered Clouds
1:55 PM 70.9 °F 49.3 °F 46% 29.95 in 10.0 mi WNW 15.0 mph 26.5 mph N/A   Scattered Clouds
2:15 PM 73.6 °F 48.6 °F 41% 29.95 in 10.0 mi WNW 19.6 mph 28.8 mph N/A   Scattered Clouds
2:35 PM 72.1 °F 48.7 °F 43% 29.96 in 10.0 mi WNW 17.3 mph 25.3 mph N/A   Mostly Cloudy
2:55 PM 71.2 °F 50.4 °F 48% 29.96 in 10.0 mi NNW 13.8 mph 21.9 mph N/A   Mostly Cloudy
3:15 PM 71.1 °F 52.2 °F 51% 29.97 in 10.0 mi NNW 12.7 mph 24.2 mph N/A   Mostly Cloudy
3:35 PM 70.0 °F 50.9 °F 51% 29.98 in 10.0 mi NNW 13.8 mph 25.3 mph N/A   Scattered Clouds
3:55 PM 69.8 °F 50.9 °F 51% 30.00 in 10.0 mi NNW 20.7 mph 26.5 mph N/A   Mostly Cloudy
4:15 PM 68.7 °F 49.5 °F 50% 30.00 in 10.0 mi NW 17.3 mph 25.3 mph N/A   Mostly Cloudy
4:35 PM 68.0 °F 50.0 °F 52% 30.01 in 10.0 mi NW 12.7 mph 24.2 mph N/A   Mostly Cloudy
4:55 PM 67.5 °F 50.4 °F 54% 30.02 in 10.0 mi NNW 11.5 mph 21.9 mph N/A   Scattered Clouds
5:15 PM 66.7 °F 50.7 °F 56% 30.02 in 10.0 mi NW 12.7 mph 18.4 mph N/A   Scattered Clouds
5:35 PM 64.9 °F 50.9 °F 60% 30.03 in 10.0 mi NNW 6.9 mph - N/A   Scattered Clouds
5:55 PM 64.4 °F 51.8 °F 64% 30.03 in 10.0 mi NW 4.6 mph - N/A   Overcast
6:15 PM 64.2 °F 51.8 °F 64% 30.04 in 10.0 mi NNW 5.8 mph - N/A   Overcast
6:35 PM 63.5 °F 51.8 °F 66% 30.05 in 10.0 mi NW 6.9 mph - N/A   Overcast
6:55 PM 61.9 °F 51.8 °F 69% 30.05 in 10.0 mi NW 4.6 mph - N/A   Mostly Cloudy
7:15 PM 59.7 °F 51.8 °F 75% 30.05 in 10.0 mi NW 4.6 mph - N/A   Scattered Clouds
7:35 PM 58.8 °F 51.8 °F 77% 30.07 in 10.0 mi NW 3.5 mph - N/A   Clear
7:55 PM 57.2 °F 51.8 °F 82% 30.07 in 10.0 mi NW 4.6 mph - N/A   Clear
8:15 PM 56.7 °F 51.8 °F 84% 30.08 in 10.0 mi WNW 3.5 mph - N/A   Clear
8:35 PM 55.8 °F 51.8 °F 87% 30.09 in 10.0 mi NW 3.5 mph - N/A   Clear
8:55 PM 55.9 °F 51.8 °F 86% 30.10 in 10.0 mi NW 4.6 mph - N/A   Clear
9:15 PM 55.6 °F 51.6 °F 87% 30.10 in 10.0 mi WNW 4.6 mph - N/A   Scattered Clouds
9:35 PM 55.4 °F 51.8 °F 88% 30.10 in 10.0 mi WNW 4.6 mph - N/A   Scattered Clouds
9:55 PM 56.8 °F 52.3 °F 85% 30.11 in 10.0 mi WNW 5.8 mph - N/A   Mostly Cloudy
10:15 PM 57.2 °F 52.3 °F 84% 30.11 in 10.0 mi NW 4.6 mph - N/A   Overcast
10:35 PM 56.3 °F 52.3 °F 87% 30.11 in 10.0 mi NW 3.5 mph - N/A   Mostly Cloudy
10:55 PM 55.9 °F 51.8 °F 86% 30.12 in 10.0 mi NW 3.5 mph - N/A   Mostly Cloudy
11:15 PM 54.5 °F 51.8 °F 91% 30.12 in 10.0 mi NNW 4.6 mph - N/A   Scattered Clouds
11:35 PM 54.9 °F 52.0 °F 90% 30.13 in 10.0 mi North 3.5 mph - N/A   Clear
11:55 PM 54.7 °F 51.8 °F 90% 30.13 in 10.0 mi Calm Calm - N/A   Clear